Startpagina
METAR-TAF:

METAR-TAF

Vliegvelden :

Vlieland Heliport

Vlieland, Nederland

breedte: 53-15N, lengte: 004-55E, hoogte: 11 m

Actueel weer

Dit bericht is 38 minuten geleden gemaakt, om 23:25 UTC
Wind 9 kt uit het noordnoordwesten
Temperatuur 18°C
Vochtigheid 64%
Druk 1015 hPa
Zicht 10 km of meer
Geheel bewolkt op 4900 ft

METAR: EHVL 192325Z AUTO 33009KT 9999 OVC049 18/11 Q1015 BLU

Tijdstip: 02:03 (00:03 UTC)


TAF: ontbreekt

Waarnemingen en weersverwachtingen van meer dan 4000 vliegvelden (METAR en TAF).

De beschikbare stations zijn de gele en rode punten op de kaart.

Ga met uw muis naar het station om de naam te zien.

Klik dan om waarnemingen en weersverwachtingen te zien.

kaart wijzigen: klik op de groene knoppen met een zwart kruis om in te zoomen, op de groene knop met een streepje om uit te zoomen of op de groene pijlen voor aangrenzende kaarten.


METAR-TAF: